Location: Rounton
(54.4000°N, 1.3500°W)
Time: 15:05:29
(UTC+01:00)

deb Delta 126 - Pass Details

Date: 05 July 2022
Orbit: 1120 x 1970 km, 101.5° (Epoch: 15 August)

Event Time Altitude Azimuth Distance (km) Brightness Sun altitude
Rises 22:39:42 0° 23° (NNE) 5,098 ? -6.4°
Reaches altitude 10° 22:42:43 10° 19° (NNE) 4,186 ? -6.6°
Maximum altitude 22:52:36 53° 308° (NW) 2,308 ? -7.4°
Drops below altitude 10° 23:02:59 10° 236° (WSW) 4,383 ? -8.2°
Sets 23:06:12 0° 232° (SW) 5,350 ? -8.4°
